Hudson Falls, NY

3:52 PM EDT on July 23, 2016 (GMT -0400)
Bennett Memorial

Weather History for KGFL - January, 2014

Change the Weather History Date:

Thursday, January 2, 2014

  Actual Average Record
Temperature  
Mean Temperature 0 °F 19 °F  
Max Temperature 4 °F 29 °F 47 °F (1979)
Min Temperature -4 °F 10 °F -24 °F (1968)
Degree Days  
Heating Degree Days 65 46  
Month to date heating degree days 120 91  
Since 1 July heating degree days 3059 3029  
Cooling Degree Days 0 0  
Month to date cooling degree days 0 0  
Year to date cooling degree days 0 0  
Moisture  
Dew Point -5 °F    
Average Humidity 80    
Maximum Humidity 87    
Minimum Humidity 72    
Precipitation  
Precipitation 0.05 in 0.09 in 0.92 in (1979)
Month to date precipitation 0.05 0.18  
Year to date precipitation 0.05 0.18  
Sea Level Pressure  
Sea Level Pressure 30.19 in    
Wind  
Wind Speed 9 mph (NE)    
Max Wind Speed 14 mph    
Max Gust Speed 18 mph    
Visibility 2 miles    
Events Fog , Snow    
T = Trace of Precipitation, MM = Missing Value Source: NWS Daily Summary

Daily Weather History Graph

Daily Weather History Graph

Search for Another Location

Airport or City:

Trip Planner

Search our weather history database for the weather conditions in past years. The results will help you decide how hot, cold, wet, or windy it might be!

Date:

Astronomy

Jan. 02, 2014 Rise Set
Actual Time 7:26 AM EST 4:30 PM EST
Civil Twilight 6:54 AM EST 5:02 PM EST
Nautical Twilight 6:18 AM EST 5:38 PM EST
Astronomical Twilight 5:44 AM EST 6:13 PM EST
Moon 8:03 AM EST (1/2) 6:27 PM EST (1/2)
Length of Visible Light 10h 08m
Length of Day
9h 03m
New Moon, 2% of the Moon is Illuminated
Jan 2
New Moon
Jan 7
First Quarter
Jan 15
Full
Jan 24
Last Quarter
Jan 30
New

Hourly Weather History & Observations

Time (EST) Temp. Windchill Dew Point Humidity Pressure Visibility Wind Dir Wind Speed Gust Speed Precip Events Conditions
12:53 AM 3.0 °F -13.3 °F -2.0 °F 80% 30.42 in 6.0 mi ENE 11.5 mph - 0.00 in   Haze
1:53 AM 3.9 °F -8.2 °F -2.0 °F 76% 30.42 in 4.0 mi NE 6.9 mph - 0.00 in Snow Light Snow
2:15 AM 3.2 °F -7.8 °F -2.2 °F 78% 30.38 in 2.0 mi NE 5.8 mph - 0.00 in Snow Light Snow
2:38 AM 3.2 °F -7.8 °F -2.2 °F 78% 30.38 in 3.0 mi ENE 5.8 mph - 0.00 in Snow Light Snow
2:53 AM 3.0 °F -9.3 °F -2.0 °F 80% 30.42 in 3.0 mi ENE 6.9 mph - 0.00 in Snow Light Snow
3:23 AM 1.4 °F -11.3 °F -2.2 °F 85% 30.37 in 2.5 mi ENE 6.9 mph - 0.00 in Snow Light Snow
3:50 AM 1.4 °F -13.5 °F -4.0 °F 78% 30.36 in 3.0 mi ENE 9.2 mph - 0.00 in Snow Light Snow
3:53 AM 1.9 °F -12.9 °F -4.0 °F 76% 30.41 in 3.0 mi ENE 9.2 mph - 0.00 in Snow Light Snow
4:02 AM 1.4 °F -13.5 °F -4.0 °F 78% 30.36 in 2.0 mi ENE 9.2 mph - 0.00 in Snow Light Snow
4:10 AM 1.4 °F -14.5 °F -4.0 °F 78% 30.36 in 2.0 mi ENE 10.4 mph - 0.00 in Snow Light Snow
4:49 AM 1.4 °F -12.5 °F -4.0 °F 78% 30.35 in 1.2 mi NE 8.1 mph - 0.00 in Snow Light Snow
4:53 AM 1.0 °F -11.7 °F -4.0 °F 79% 30.39 in 1.0 mi NE 6.9 mph - 0.00 in Snow Light Snow
5:53 AM 1.0 °F -11.7 °F -4.0 °F 79% 30.39 in 1.8 mi NE 6.9 mph - 0.00 in Snow Light Snow
6:41 AM 1.4 °F -9.9 °F -4.0 °F 78% 30.34 in 1.0 mi NE 5.8 mph - 0.01 in Snow Light Snow
6:53 AM 1.0 °F -11.7 °F -4.0 °F 79% 30.39 in 1.2 mi NE 6.9 mph - 0.01 in Snow Light Snow
7:23 AM -0.4 °F -15.7 °F -5.8 °F 78% 30.33 in 1.0 mi NE 9.2 mph - 0.00 in Snow Light Snow
7:46 AM -0.4 °F -14.7 °F -5.8 °F 78% 30.33 in 0.5 mi NE 8.1 mph - 0.00 in Snow Snow
7:53 AM -0.0 °F -15.3 °F -4.0 °F 83% 30.38 in 0.5 mi NE 9.2 mph - 0.00 in Fog , Snow Snow
8:53 AM -0.0 °F -13.0 °F -5.1 °F 79% 30.37 in 0.5 mi NE 6.9 mph - 0.00 in Snow Snow
9:07 AM -0.4 °F -13.4 °F -4.0 °F 85% 30.32 in 0.8 mi NE 6.9 mph - 0.01 in Snow Light Snow
9:28 AM 1.4 °F -12.5 °F -4.0 °F 78% 30.31 in 0.5 mi NE 8.1 mph - 0.01 in Snow Snow
9:53 AM 1.0 °F -14.0 °F -4.0 °F 79% 30.35 in 0.5 mi NE 9.2 mph - 0.01 in Snow Snow
10:53 AM 1.9 °F -12.9 °F -2.9 °F 80% 30.31 in 0.8 mi NE 9.2 mph - 0.00 in Snow Light Snow
11:53 AM 1.9 °F -10.6 °F -2.0 °F 83% 30.26 in 0.8 mi NE 6.9 mph - 0.01 in Snow Light Snow
12:02 PM 1.4 °F -11.3 °F -2.2 °F 85% 30.20 in 0.5 mi NE 6.9 mph - 0.00 in Fog , Snow Snow
12:53 PM 1.9 °F -12.9 °F -2.9 °F 80% 30.20 in 0.5 mi NE 9.2 mph - 0.00 in Snow Snow
1:53 PM -0.0 °F -14.2 °F -4.0 °F 83% 30.18 in 0.5 mi ENE 8.1 mph - 0.00 in Fog , Snow Snow
2:15 PM -0.4 °F -15.7 °F -5.8 °F 78% 30.11 in 0.2 mi ENE 9.2 mph - 0.00 in Snow Heavy Snow
2:25 PM -0.4 °F -15.7 °F -5.8 °F 78% 30.10 in 0.5 mi ENE 9.2 mph - 0.00 in Snow Snow
2:53 PM -0.0 °F -15.3 °F -4.0 °F 83% 30.14 in 0.5 mi NE 9.2 mph - 0.01 in Fog , Snow Snow
3:12 PM 1.4 °F -12.5 °F -4.0 °F 78% 30.08 in 0.8 mi NNE 8.1 mph - 0.00 in Snow Light Snow
3:26 PM 1.4 °F -14.5 °F -4.0 °F 78% 30.09 in 1.2 mi NNE 10.4 mph - 0.00 in Snow Light Snow
3:33 PM 1.4 °F -15.3 °F -4.0 °F 78% 30.08 in 2.0 mi NNE 11.5 mph - 0.00 in Snow Light Snow
3:45 PM 1.4 °F -14.5 °F -4.0 °F 78% 30.08 in 4.0 mi NNE 10.4 mph - 0.00 in Snow Light Snow
3:51 PM 1.4 °F -14.5 °F -4.0 °F 78% 30.08 in 1.2 mi NNE 10.4 mph - 0.00 in Snow Light Snow
3:53 PM 1.9 °F -13.8 °F -4.0 °F 76% 30.13 in 1.0 mi NNE 10.4 mph - 0.00 in Snow Light Snow
4:00 PM 1.4 °F -14.5 °F -4.0 °F 78% 30.08 in 0.8 mi NE 10.4 mph - 0.00 in Snow Light Snow
4:07 PM 1.4 °F -14.5 °F -5.8 °F 72% 30.07 in 1.8 mi NNE 10.4 mph - 0.00 in Snow Light Snow
4:34 PM 1.4 °F -15.3 °F -5.8 °F 72% 30.08 in 1.2 mi NNE 11.5 mph - 0.00 in Snow Light Snow
4:53 PM 1.0 °F -14.9 °F -4.0 °F 79% 30.12 in 1.5 mi NNE 10.4 mph - 0.00 in Snow Light Snow
5:11 PM 1.4 °F -13.5 °F -4.0 °F 78% 30.07 in 0.8 mi NNE 9.2 mph - 0.01 in Snow Light Snow
5:21 PM 1.4 °F -13.5 °F -5.8 °F 72% 30.07 in 1.0 mi NE 9.2 mph - 0.01 in Snow Light Snow
5:31 PM 1.4 °F -15.3 °F -5.8 °F 72% 30.07 in 0.8 mi NE 11.5 mph - 0.01 in Snow Light Snow
5:39 PM -0.4 °F -17.6 °F -5.8 °F 78% 30.07 in 2.0 mi NNE 11.5 mph - 0.01 in Snow Light Snow
5:47 PM -0.4 °F -16.7 °F -5.8 °F 78% 30.07 in 3.0 mi NNE 10.4 mph - 0.01 in Snow Light Snow
5:53 PM -0.0 °F -17.1 °F -6.0 °F 76% 30.12 in 3.0 mi NE 11.5 mph - 0.01 in Snow Light Snow
6:03 PM -0.4 °F -18.4 °F -5.8 °F 78% 30.06 in 2.5 mi NE 12.7 mph - 0.00 in Snow Light Snow
6:14 PM -0.4 °F -17.6 °F -7.6 °F 72% 30.05 in 1.5 mi NNE 11.5 mph - 0.00 in Snow Light Snow
6:32 PM -0.4 °F -18.4 °F -7.6 °F 72% 30.04 in 2.5 mi NE 12.7 mph - 0.00 in Snow Light Snow
6:42 PM -0.4 °F -17.6 °F -7.6 °F 72% 30.06 in 4.0 mi NNE 11.5 mph - 0.00 in Snow Light Snow
6:53 PM -0.9 °F -18.3 °F -7.1 °F 75% 30.10 in 4.0 mi NE 11.5 mph - 0.00 in Snow Light Snow
7:09 PM -0.4 °F -17.6 °F -7.6 °F 72% 30.05 in 1.8 mi NE 11.5 mph - 0.00 in Snow Light Snow
7:16 PM -0.4 °F -17.6 °F -7.6 °F 72% 30.04 in 1.2 mi NE 11.5 mph - 0.00 in Snow Light Snow
7:53 PM -2.0 °F -20.5 °F -8.0 °F 76% 30.10 in 1.5 mi NE 12.7 mph - 0.00 in Snow Light Snow
8:53 PM -4.0 °F -20.2 °F -8.0 °F 83% 30.05 in 1.8 mi NE 9.2 mph - 0.00 in Snow Light Snow
9:53 PM -4.0 °F -22.1 °F -9.0 °F 79% 30.06 in 1.5 mi NNE 11.5 mph - 0.00 in Snow Light Snow
10:53 PM -4.0 °F -21.2 °F -9.0 °F 79% 30.04 in 1.2 mi NE 10.4 mph - 0.00 in Snow Light Snow
11:16 PM -4.0 °F -20.2 °F -9.4 °F 78% 29.98 in 2.0 mi NE 9.2 mph - 0.00 in Snow Light Snow
11:33 PM -4.0 °F -21.2 °F -9.4 °F 78% 29.96 in 1.8 mi NE 10.4 mph - 0.00 in Snow Light Snow
11:53 PM -4.0 °F -21.2 °F -9.9 °F 76% 30.02 in 1.2 mi NE 10.4 mph - 0.00 in Snow Light Snow